Weather Roundup
Issued by NWS Chicago, IL

Home | Current Version | Previous Version | Text Only | Print | Product List | Glossary On
Versions: 1 2 3 4 5 6 7 8 9 10 11 12 13 14 15 16 17 18 19 20 21 22 23 24 25 26 27 28 29 30 31 32 33 34 35 36 37 38 39 40 41 42 43 44 45 46 47 48 49 50
000
NZUS59 KLOT 222210
HRRLOT

CHICAGO AREA WEATHER ROUNDUP
NATIONAL WEATHER SERVICE CHICAGO/ROMEOVILLE IL
500 PM CDT FRI AUG 22 2014

NOTE: "FAIR" INDICATES FEW OR NO CLOUDS BELOW 12,000 FEET WITH NO
SIGNIFICANT WEATHER AND/OR OBSTRUCTIONS TO VISIBILITY.

* THESE STATIONS ARE NOT UNDER NWS QUALITY CONTROL. THEY ALSO MAY NOT
  REPORT WEATHER SUCH AS PRECIPITATION OR FOG.

ILZ005-006-012>014-019>023-222300-
NORTHEAST ILLINOIS

CITY           SKY/WX    TMP DP  RH WIND       PRES   REMARKS
OHARE          PTSUNNY   86  70  58 SW5       29.92S HX  90
MIDWAY         PTSUNNY   86  72  62 W9        29.93R HX  92
AURORA         CLOUDY    82  73  74 NW7       29.95S HX  87
LANSING*       CLOUDY    83  71  66 W9G16     29.94S HX  88
JOLIET*        PTSUNNY   83  70  65 W3        29.95S HX  87
WAUKEGAN       SUNNY     79  72  79 E9        29.93R HX  82
DUPAGE AIRPORT MOSUNNY   84  74  71 W9        29.94R HX  91
WHEELING       CLOUDY    83  75  77 NE7       29.94R HX  90
KANKAKEE*      MOSUNNY   83  74  75 W6        29.96S HX  90
MORRIS*        PTSUNNY   83  74  74 W5        29.95S HX  90
LEWIS AIRPORT* CLOUDY    81  72  74 W6        29.95S HX  85
NORTHERLY IS     N/A     78  73  84 NE2         N/A  HX  81
$$

WIZ051-052-058>065-066-070>072-222300-
SOUTHEAST WISCONSIN

CITY           SKY/WX    TMP DP  RH WIND       PRES   REMARKS
MILWAUKEE      PTSUNNY   74  70  87 NE7       29.95R
KENOSHA*       MOSUNNY   80  73  79 E9        29.94R HX  84
RACINE*        SUNNY     80  72  76 E9        29.95R HX  84
BURLINGTON     MOSUNNY   85  73  66 CALM      29.93R HX  92
WAUKESHA       PTSUNNY   81  72  74 E10       29.95R HX  84
WEST BEND      SUNNY     79  70  73 E7        29.95S HX  81
$$

INZ001>003-010>013-019-020-222300-
NORTHWEST INDIANA

CITY           SKY/WX    TMP DP  RH WIND       PRES   REMARKS
GARY*          CLOUDY    86  72  62 W6        29.94R HX  92
MICHIGAN CITY* NOT AVBL
RENSSELAER*    NOT AVBL
VALPARAISO     CLOUDY    82  72  71 SW7       29.96R HX  87
$$

LMZ740>746-222300-
SOUTHERN LAKE MICHIGAN

STATION/POSITION TIME  SKY/WX   TEMP WIND        PRES    VSBY
                                AIR  DIR/SP/G
                 (UTC)          (F)  (DEG/KT/KT) (MB)    (MI)
HARRISON CRIB    2200            77  110/  8/  9   N/A
BURNHAM HARBOR   2200            78   50/  1/  6   N/A
CALUMET HARBOR   2200            84  210/  5/  8 1012.2F
BURNS HARBOR     NOT AVBL
MICHIGAN CITY    2200            82  340/  3/  4   N/A
$$

ABBREVIATIONS USED IN REMARKS
   TC - TEMPERATURE IN CELSIUS
  WCI - WIND CHILL INDEX
   HX - HEAT INDEX
  VSB - VISIBILITY
$$



USA.gov is the U.S. government's official web portal to all federal, state and local government web resources and services.